This is the latest recevied weather packets stored in our database for station/object KD4WLE. If no packets are shown the sender has not sent any weather packets the latest 10 day(s).
| Time | Temp. | Humidity | Pressure | Rain* | Wind** | Luminosity | Snow |
|---|---|---|---|---|---|---|---|
| 1777671348 | 29.44° C | 70% | 1009.5 hPa | 0 mm | - | 294 W/m² | - |
| 1777671044 | 30° C | 70% | 1009.6 hPa | 0 mm | - | 205 W/m² | - |
| 1777670740 | 30° C | 70% | 1009.6 hPa | 0 mm | - | 243 W/m² | - |
| 1777670438 | 30° C | 69% | 1009.8 hPa | 0 mm | - | 307 W/m² | - |
| 1777670134 | 29.44° C | 69% | 1009.7 hPa | 0 mm | - | 327 W/m² | - |
| 1777669832 | 30.56° C | 69% | 1009.8 hPa | 0 mm | - | 134 W/m² | - |
| 1777669528 | 30° C | 68% | 1009.9 hPa | 0 mm | - | 442 W/m² | - |
| 1777669225 | 30° C | 68% | 1009.9 hPa | 0 mm | - | 183 W/m² | - |
| 1777668922 | 30° C | 69% | 1009.9 hPa | 0 mm | - | 179 W/m² | - |
| 1777668620 | 30° C | 69% | 1009.6 hPa | 0 mm | - | 187 W/m² | - |
| 1777668315 | 30° C | 68% | 1010 hPa | 0 mm | - | 169 W/m² | - |
| 1777668011 | 30.56° C | 67% | 1009.6 hPa | 0 mm | - | 147 W/m² | - |
| 1777667708 | 31.67° C | 66% | 1009.6 hPa | 0 mm | - | 163 W/m² | - |
| 1777667406 | 31.11° C | 66% | 1009.8 hPa | 0 mm | - | 547 W/m² | - |
| 1777667103 | 31.11° C | 66% | 1009.9 hPa | 0 mm | - | 563 W/m² | - |
| 1777666799 | 31.11° C | 65% | 1009.9 hPa | 0 mm | - | 644 W/m² | - |
| 1777666496 | 30° C | 66% | 1010.1 hPa | 0 mm | - | 425 W/m² | - |
| 1777666193 | 30.56° C | 66% | 1010.1 hPa | 0 mm | - | 236 W/m² | - |
| 1777665890 | 30.56° C | 67% | 1009.8 hPa | 0 mm | - | 221 W/m² | - |
| 1777665588 | 31.11° C | 65% | 1010.3 hPa | 0 mm | - | 183 W/m² | - |
| 1777665284 | 31.67° C | 64% | 1010.4 hPa | 0 mm | - | 197 W/m² | - |
| 1777664980 | 31.67° C | 63% | 1010.6 hPa | 0 mm | - | 636 W/m² | - |
| 1777664676 | 33.33° C | 60% | 1010.8 hPa | 0 mm | - | 583 W/m² | - |
| 1777664372 | 33.33° C | 50% | 1010.7 hPa | 0 mm | - | 720 W/m² | - |
| 1777664070 | 33.89° C | 46% | 1011.1 hPa | 0 mm | - | 536 W/m² | - |
* Rain latest hour (hover to see other rain measurements)
** Current wind speed in m/s (hover to see current wind gust speed)